IRM027 UZTT-OOMS

Flight info

Callsign IRM027
Flight time N/A
Altitude 36000
Route KUFIM2A KUFIM L143 UVASU T388 RAVEG P178 MANAT/N0480F360 B376 LBA A847 NAZAR A647 MSD/N0484F370 B441 BJD/N0483F380 B441 NABOX/N0488F370 R654 NAGES M719 MESPO L430 ASLOM R462 VUSET
Aircraft A346/H-SDE2E3FGHIJ3J4J5M1RWXY/LB1D1

Departure

Time 2026-05-06 00:36
Airport Tashkent International Airport (UZTT)

Arrival

Time N/A
Airport Muscat International Airport (OOMS)
Time Latitude Longitude Altitude Speed Heading
2026-05-06 00:08 41.25961 69.26817 1430 ft 0 kts 335°
2026-05-06 00:28 41.25973 69.26808 1430 ft 3 kts 329°
2026-05-06 00:28 41.25993 69.26777 1430 ft 6 kts 289°
2026-05-06 00:29 41.25990 69.26716 1430 ft 8 kts 251°
2026-05-06 00:29 41.25966 69.26634 1430 ft 10 kts 248°
2026-05-06 00:29 41.25941 69.26556 1430 ft 12 kts 245°
2026-05-06 00:29 41.25893 69.26464 1430 ft 13 kts 222°
2026-05-06 00:30 41.25833 69.26399 1430 ft 9 kts 218°
2026-05-06 00:30 41.25776 69.26337 1430 ft 11 kts 224°
2026-05-06 00:30 41.25736 69.26253 1430 ft 11 kts 251°
2026-05-06 00:30 41.25713 69.26187 1430 ft 9 kts 243°
2026-05-06 00:31 41.25686 69.26118 1430 ft 4 kts 244°
2026-05-06 00:31 41.25675 69.26083 1430 ft 6 kts 248°
2026-05-06 00:31 41.25659 69.26035 1430 ft 8 kts 244°
2026-05-06 00:31 41.25629 69.25979 1430 ft 9 kts 231°
2026-05-06 00:32 41.25603 69.25903 1430 ft 10 kts 251°
2026-05-06 00:32 41.25603 69.25832 1430 ft 7 kts 287°
2026-05-06 00:32 41.25622 69.25780 1430 ft 5 kts 288°
2026-05-06 00:32 41.25614 69.25747 1430 ft 6 kts 229°
2026-05-06 00:33 41.25596 69.25742 1430 ft 2 kts 142°
2026-05-06 00:33 41.25590 69.25781 1430 ft 6 kts 92°
2026-05-06 00:33 41.25592 69.25807 1430 ft 0 kts 78°
2026-05-06 00:34 41.25592 69.25809 1430 ft 1 kts 78°
2026-05-06 00:35 41.25604 69.25905 1430 ft 33 kts 81°
2026-05-06 00:35 41.25666 69.26503 1430 ft 96 kts 82°
2026-05-06 00:35 41.26022 69.29663 1666 ft 182 kts 82°
2026-05-06 00:36 41.26158 69.31348 2074 ft 187 kts 95°
2026-05-06 00:36 41.25578 69.32838 2495 ft 193 kts 142°
2026-05-06 00:36 41.24327 69.33345 2971 ft 199 kts 181°
2026-05-06 00:36 41.23013 69.32658 3367 ft 213 kts 219°
2026-05-06 00:37 41.22051 69.31110 3719 ft 226 kts 231°
2026-05-06 00:37 41.21039 69.29449 4058 ft 241 kts 229°
2026-05-06 00:37 41.19892 69.27647 4238 ft 267 kts 228°
2026-05-06 00:37 41.18626 69.25712 4664 ft 282 kts 228°
2026-05-06 00:38 41.17360 69.23766 5506 ft 281 kts 228°
2026-05-06 00:38 41.16119 69.21789 6231 ft 285 kts 231°
2026-05-06 00:38 41.14839 69.19736 6926 ft 291 kts 229°
2026-05-06 00:38 41.13513 69.17703 7717 ft 293 kts 229°
2026-05-06 00:39 41.12203 69.15733 8655 ft 287 kts 228°
2026-05-06 00:39 41.10879 69.13808 9605 ft 280 kts 227°
2026-05-06 00:39 41.09568 69.11956 10274 ft 284 kts 226°
2026-05-06 00:39 41.08176 69.09979 10593 ft 301 kts 228°
2026-05-06 00:40 41.06759 69.07865 10954 ft 316 kts 229°
2026-05-06 00:40 41.05307 69.05609 11367 ft 328 kts 231°
2026-05-06 00:40 41.03827 69.03248 11815 ft 340 kts 230°
2026-05-06 00:40 41.02265 69.00794 12131 ft 356 kts 230°
2026-05-06 00:41 41.00635 68.98253 12412 ft 372 kts 230°
2026-05-06 00:41 40.98902 68.95574 12769 ft 386 kts 230°
2026-05-06 00:41 40.97157 68.92891 13353 ft 391 kts 231°
2026-05-06 00:41 40.95374 68.90152 14022 ft 394 kts 231°
2026-05-06 00:42 40.93631 68.87481 14613 ft 370 kts 231°
2026-05-06 00:42 40.92022 68.85023 14936 ft 346 kts 231°
2026-05-06 00:42 40.90492 68.82684 15018 ft 330 kts 231°
2026-05-06 00:42 40.89012 68.80426 15012 ft 316 kts 231°
2026-05-06 00:43 40.87599 68.78267 15019 ft 314 kts 231°
2026-05-06 00:43 40.86158 68.76067 15019 ft 314 kts 231°
2026-05-06 00:43 40.84739 68.73905 15023 ft 314 kts 231°
2026-05-06 00:43 40.83307 68.71728 15011 ft 314 kts 231°
2026-05-06 00:44 40.81891 68.69572 15016 ft 314 kts 231°
2026-05-06 00:44 40.80423 68.67421 15010 ft 315 kts 224°
2026-05-06 00:44 40.78516 68.66033 14998 ft 321 kts 193°
2026-05-06 00:44 40.76277 68.66055 15009 ft 325 kts 163°
2026-05-06 00:45 40.74303 68.67450 15013 ft 327 kts 137°
2026-05-06 00:45 40.72960 68.69817 15017 ft 325 kts 111°
2026-05-06 00:45 40.72501 68.72694 15009 ft 322 kts 86°
2026-05-06 00:45 40.73005 68.75519 15015 ft 318 kts 60°
2026-05-06 00:46 40.74341 68.77811 15033 ft 315 kts 42°
2026-05-06 00:46 40.75899 68.79803 15026 ft 315 kts 43°
2026-05-06 00:46 40.77460 68.81844 15027 ft 315 kts 43°
2026-05-06 00:46 40.78994 68.83888 15030 ft 315 kts 43°
2026-05-06 00:47 40.80547 68.85973 15021 ft 315 kts 43°
2026-05-06 00:47 40.82072 68.88033 15020 ft 316 kts 44°
2026-05-06 00:47 40.83597 68.90100 15028 ft 316 kts 44°
2026-05-06 00:47 40.85137 68.92187 15023 ft 316 kts 44°
2026-05-06 00:48 40.86693 68.94173 15011 ft 314 kts 33°
2026-05-06 00:48 40.88672 68.95259 15018 ft 308 kts
2026-05-06 00:48 40.90770 68.95046 15026 ft 305 kts 340°
2026-05-06 00:48 40.92619 68.93684 15026 ft 304 kts 316°
2026-05-06 00:49 40.93864 68.91454 15023 ft 305 kts 293°
2026-05-06 00:49 40.94300 68.88722 15023 ft 308 kts 269°
2026-05-06 00:49 40.93833 68.85981 15025 ft 312 kts 244°
2026-05-06 00:49 40.92529 68.83688 15030 ft 315 kts 226°
2026-05-06 00:50 40.90969 68.81646 15029 ft 315 kts 227°
2026-05-06 00:50 40.89433 68.79605 15028 ft 315 kts 227°
2026-05-06 00:50 40.87888 68.77532 15029 ft 314 kts 228°
2026-05-06 00:50 40.86364 68.75478 15020 ft 314 kts 228°
2026-05-06 00:51 40.84824 68.73402 15027 ft 315 kts 228°
2026-05-06 00:51 40.83296 68.71345 15016 ft 315 kts 228°
2026-05-06 00:51 40.81766 68.69283 15020 ft 315 kts 228°
2026-05-06 00:51 40.80201 68.67243 15017 ft 317 kts 221°
2026-05-06 00:52 40.78239 68.65976 15004 ft 322 kts 191°
2026-05-06 00:52 40.76005 68.66130 15014 ft 326 kts 161°
2026-05-06 00:52 40.74082 68.67660 15021 ft 327 kts 134°
2026-05-06 00:52 40.72840 68.70119 15023 ft 325 kts 108°
2026-05-06 00:53 40.72498 68.73053 15016 ft 322 kts 83°
2026-05-06 00:53 40.73119 68.75835 15017 ft 317 kts 57°
2026-05-06 00:53 40.74501 68.78022 15040 ft 314 kts 42°
2026-05-06 00:53 40.76079 68.80041 15031 ft 314 kts 43°
2026-05-06 00:54 40.77616 68.82054 15031 ft 315 kts 43°
2026-05-06 00:54 40.79171 68.84123 15035 ft 315 kts 43°
2026-05-06 00:54 40.80690 68.86166 15028 ft 315 kts 44°
2026-05-06 00:54 40.82224 68.88239 15021 ft 315 kts 43°
2026-05-06 00:55 40.83750 68.90305 15030 ft 315 kts 44°
2026-05-06 00:55 40.85289 68.92391 15025 ft 315 kts 44°
2026-05-06 00:55 40.86876 68.94344 15009 ft 313 kts 30°
2026-05-06 00:55 40.88877 68.95283 15023 ft 308 kts
2026-05-06 00:56 40.90998 68.94942 15027 ft 306 kts 338°
2026-05-06 00:56 40.92778 68.93491 15027 ft 305 kts 314°
2026-05-06 00:56 40.93950 68.91190 15022 ft 306 kts 290°
2026-05-06 00:56 40.94294 68.88393 15027 ft 309 kts 266°
2026-05-06 00:57 40.93725 68.85699 15026 ft 313 kts 242°
2026-05-06 00:57 40.92350 68.83463 15036 ft 315 kts 226°
2026-05-06 00:57 40.90783 68.81408 15030 ft 315 kts 227°
2026-05-06 00:57 40.89240 68.79349 15029 ft 315 kts 227°
2026-05-06 00:58 40.87720 68.77305 15022 ft 315 kts 228°
2026-05-06 00:58 40.86172 68.75219 15018 ft 315 kts 228°
2026-05-06 00:58 40.84645 68.73161 15026 ft 316 kts 228°
2026-05-06 00:58 40.83113 68.71097 15013 ft 316 kts 228°
2026-05-06 00:59 40.81573 68.69021 15014 ft 315 kts 228°
2026-05-06 00:59 40.80001 68.67030 15011 ft 317 kts 218°
2026-05-06 00:59 40.77962 68.65916 15002 ft 322 kts 187°
2026-05-06 00:59 40.75751 68.66254 15007 ft 326 kts 157°
2026-05-06 01:00 40.73899 68.67916 15018 ft 326 kts 131°
2026-05-06 01:00 40.72745 68.70487 15017 ft 325 kts 105°
2026-05-06 01:00 40.72527 68.73395 15012 ft 321 kts 79°
2026-05-06 01:00 40.73249 68.76118 15012 ft 317 kts 54°
2026-05-06 01:01 40.74698 68.78261 15039 ft 315 kts 42°
2026-05-06 01:01 40.76279 68.80291 15031 ft 314 kts 43°
2026-05-06 01:01 40.77820 68.82317 15031 ft 314 kts 43°
2026-05-06 01:01 40.79348 68.84357 15033 ft 314 kts 43°
2026-05-06 01:02 40.80885 68.86427 15029 ft 314 kts 44°
2026-05-06 01:02 40.82414 68.88493 15017 ft 314 kts 44°
2026-05-06 01:02 40.83922 68.90537 15027 ft 315 kts 44°
2026-05-06 01:02 40.85457 68.92617 15023 ft 315 kts 44°
2026-05-06 01:03 40.87083 68.94522 14999 ft 312 kts 26°
2026-05-06 01:03 40.89131 68.95308 15014 ft 308 kts 359°
2026-05-06 01:03 40.91204 68.94837 15012 ft 305 kts 335°
2026-05-06 01:03 40.92943 68.93267 15010 ft 304 kts 311°
2026-05-06 01:04 40.94032 68.90884 15000 ft 305 kts 288°
2026-05-06 01:04 40.94272 68.88111 15009 ft 309 kts 264°
2026-05-06 01:04 40.93601 68.85419 15004 ft 313 kts 239°
2026-05-06 01:04 40.92189 68.83256 15021 ft 317 kts 227°
2026-05-06 01:05 40.90617 68.81187 15011 ft 316 kts 227°
2026-05-06 01:05 40.89070 68.79120 15012 ft 316 kts 227°
2026-05-06 01:05 40.87532 68.77052 15004 ft 316 kts 227°
2026-05-06 01:05 40.86005 68.74995 15001 ft 316 kts 228°
2026-05-06 01:06 40.84468 68.72922 15010 ft 316 kts 228°
2026-05-06 01:06 40.82921 68.70838 15000 ft 316 kts 228°
2026-05-06 01:06 40.81385 68.68771 15000 ft 315 kts 228°
2026-05-06 01:06 40.79779 68.66818 14995 ft 318 kts 214°
2026-05-06 01:07 40.77685 68.65876 14999 ft 323 kts 183°
2026-05-06 01:07 40.75507 68.66385 15000 ft 326 kts 154°
2026-05-06 01:07 40.73723 68.68177 15017 ft 326 kts 128°
2026-05-06 01:07 40.72673 68.70814 15014 ft 324 kts 102°
2026-05-06 01:08 40.72567 68.73739 15016 ft 321 kts 76°
2026-05-06 01:08 40.73393 68.76401 15012 ft 315 kts 51°
2026-05-06 01:08 40.74879 68.78492 15037 ft 313 kts 42°
2026-05-06 01:08 40.76431 68.80491 15032 ft 313 kts 43°
2026-05-06 01:09 40.77969 68.82513 15031 ft 314 kts 43°
2026-05-06 01:09 40.79511 68.84571 15031 ft 314 kts 44°
2026-05-06 01:09 40.81037 68.86625 15030 ft 314 kts 44°
2026-05-06 01:09 40.82561 68.88689 15016 ft 314 kts 44°
2026-05-06 01:10 40.84094 68.90767 15026 ft 315 kts 44°
2026-05-06 01:10 40.85624 68.92841 15025 ft 315 kts 44°
2026-05-06 01:10 40.87266 68.94650 14999 ft 311 kts 23°
2026-05-06 01:10 40.89364 68.95308 15021 ft 307 kts 356°
2026-05-06 01:11 40.91408 68.94714 15025 ft 305 kts 333°
2026-05-06 01:11 40.93095 68.93037 15027 ft 304 kts 309°
2026-05-06 01:11 40.94095 68.90610 15017 ft 306 kts 286°
2026-05-06 01:11 40.94287 68.87817 15025 ft 309 kts 263°
2026-05-06 01:12 40.93593 68.85089 15121 ft 324 kts 239°
2026-05-06 01:12 40.92089 68.82786 15393 ft 341 kts 226°
2026-05-06 01:12 40.90369 68.80555 15657 ft 356 kts 227°
2026-05-06 01:12 40.88571 68.78195 15929 ft 371 kts 227°
2026-05-06 01:13 40.86701 68.75731 16182 ft 385 kts 227°
2026-05-06 01:13 40.84781 68.73202 16567 ft 395 kts 227°
2026-05-06 01:13 40.82863 68.70680 17464 ft 389 kts 227°
2026-05-06 01:13 40.80984 68.68207 18489 ft 380 kts 229°
2026-05-06 01:14 40.78819 68.62125 19356 ft 380 kts 266°
2026-05-06 01:14 40.78543 68.58633 19591 ft 392 kts 267°
2026-05-06 01:14 40.78207 68.54985 19818 ft 405 kts 265°
2026-05-06 01:15 40.77755 68.51254 20039 ft 418 kts 261°
2026-05-06 01:15 40.77013 68.47556 20420 ft 426 kts 257°
2026-05-06 01:15 40.76136 68.43790 20959 ft 430 kts 256°
2026-05-06 01:15 40.75243 68.40039 21489 ft 433 kts 256°
2026-05-06 01:16 40.74344 68.36239 21997 ft 436 kts 256°
2026-05-06 01:16 40.73453 68.32429 22496 ft 439 kts 256°
2026-05-06 01:16 40.72564 68.28597 22983 ft 442 kts 256°
2026-05-06 01:16 40.71666 68.24718 23468 ft 445 kts 256°
2026-05-06 01:17 40.70759 68.20802 23962 ft 448 kts 256°
2026-05-06 01:17 40.69852 68.16924 24447 ft 450 kts 256°
2026-05-06 01:17 40.68925 68.12978 24925 ft 453 kts 256°
2026-05-06 01:17 40.67988 68.09001 25379 ft 456 kts 256°
2026-05-06 01:18 40.67044 68.04996 25808 ft 459 kts 256°
2026-05-06 01:18 40.66104 68.01011 26230 ft 461 kts 256°
2026-05-06 01:18 40.65155 67.96995 26648 ft 464 kts 256°
2026-05-06 01:18 40.64196 67.92953 27066 ft 466 kts 256°
2026-05-06 01:19 40.63231 67.88882 27466 ft 469 kts 257°
2026-05-06 01:19 40.62254 67.84772 27852 ft 472 kts 257°
2026-05-06 01:19 40.61282 67.80682 28224 ft 474 kts 257°
2026-05-06 01:19 40.60293 67.76537 28645 ft 476 kts 257°
2026-05-06 01:20 40.59302 67.72395 29214 ft 473 kts 257°
2026-05-06 01:20 40.58321 67.68306 29796 ft 471 kts 257°
2026-05-06 01:20 40.57337 67.64208 30364 ft 468 kts 257°
2026-05-06 01:20 40.56370 67.60184 30931 ft 465 kts 257°
2026-05-06 01:21 40.55400 67.56151 31484 ft 462 kts 257°
2026-05-06 01:21 40.54431 67.52132 32003 ft 460 kts 257°
2026-05-06 01:21 40.53471 67.48155 32522 ft 457 kts 257°
2026-05-06 01:21 40.52519 67.44215 33004 ft 455 kts 258°
2026-05-06 01:22 40.51562 67.40265 33492 ft 453 kts 258°
2026-05-06 01:22 40.50610 67.36340 33971 ft 450 kts 258°
2026-05-06 01:22 40.49666 67.32456 34361 ft 449 kts 257°
2026-05-06 01:22 40.48718 67.28554 34672 ft 449 kts 257°
2026-05-06 01:23 40.47773 67.24677 34933 ft 449 kts 257°
2026-05-06 01:23 40.46807 67.20766 35168 ft 451 kts 256°
2026-05-06 01:23 40.45719 67.16924 35374 ft 454 kts 253°
2026-05-06 01:23 40.44475 67.13145 35586 ft 457 kts 250°
2026-05-06 01:24 40.43058 67.09390 35804 ft 460 kts 247°
2026-05-06 01:24 40.41486 67.05728 35999 ft 463 kts 244°
2026-05-06 01:24 40.38174 66.98552 36049 ft 461 kts 244°
2026-05-06 01:25 40.34867 66.91424 36074 ft 447 kts 244°
2026-05-06 01:25 40.31666 66.84521 36097 ft 445 kts 244°
2026-05-06 01:26 40.28468 66.77635 36097 ft 444 kts 244°
2026-05-06 01:26 40.25258 66.70737 36093 ft 444 kts 244°
2026-05-06 01:27 40.22051 66.63864 36097 ft 444 kts 244°
2026-05-06 01:27 40.18840 66.57005 36098 ft 444 kts 244°
2026-05-06 01:28 40.15610 66.50115 36100 ft 444 kts 244°
2026-05-06 01:28 40.12405 66.43294 36090 ft 444 kts 244°
2026-05-06 01:29 40.09175 66.36434 36075 ft 444 kts 244°
2026-05-06 01:29 40.05940 66.29578 36058 ft 444 kts 243°
2026-05-06 01:30 40.02718 66.22768 36046 ft 443 kts 243°
2026-05-06 01:30 39.99495 66.15968 36036 ft 443 kts 243°
2026-05-06 01:31 39.96246 66.09124 36029 ft 443 kts 243°
2026-05-06 01:31 39.93013 66.02333 36030 ft 443 kts 243°
2026-05-06 01:32 39.89778 65.95557 36033 ft 442 kts 243°
2026-05-06 01:32 39.86540 65.88784 36036 ft 442 kts 243°
2026-05-06 01:33 39.83292 65.82005 36044 ft 442 kts 243°
2026-05-06 01:33 39.80051 65.75254 36048 ft 442 kts 243°
2026-05-06 01:34 39.76798 65.68493 36388 ft 442 kts 243°
2026-05-06 01:34 39.75227 65.65068 36175 ft 438 kts 245°
2026-05-06 01:34 39.73729 65.61646 36078 ft 438 kts 245°
2026-05-06 01:35 39.70728 65.54797 36019 ft 439 kts 245°
2026-05-06 01:35 39.67708 65.47920 35999 ft 439 kts 245°
2026-05-06 01:36 39.64704 65.41091 35990 ft 439 kts 245°
2026-05-06 01:36 39.61682 65.34238 35985 ft 439 kts 244°
2026-05-06 01:37 39.58646 65.27369 35979 ft 439 kts 244°
2026-05-06 01:37 39.55627 65.20554 35975 ft 439 kts 244°
2026-05-06 01:38 39.52589 65.13708 35974 ft 438 kts 244°
2026-05-06 01:38 39.49567 65.06914 35973 ft 438 kts 244°
2026-05-06 01:39 39.46538 65.00123 35977 ft 438 kts 244°
2026-05-06 01:39 39.43496 64.93313 35971 ft 438 kts 244°
2026-05-06 01:40 39.40433 64.86467 35969 ft 438 kts 244°
2026-05-06 01:40 39.37397 64.79702 35963 ft 438 kts 244°
2026-05-06 01:41 39.34337 64.72900 35960 ft 438 kts 244°
2026-05-06 01:41 39.31285 64.66127 35958 ft 437 kts 244°
2026-05-06 01:42 39.28227 64.59359 35957 ft 438 kts 244°
2026-05-06 01:42 39.25178 64.52621 35958 ft 437 kts 244°
2026-05-06 01:43 39.22116 64.45869 35957 ft 438 kts 244°
2026-05-06 01:43 39.19049 64.39123 35958 ft 437 kts 243°
2026-05-06 01:44 39.15975 64.32372 35959 ft 437 kts 243°
2026-05-06 01:44 39.12905 64.25646 35956 ft 437 kts 243°
2026-05-06 01:45 39.09842 64.18927 35954 ft 437 kts 244°
2026-05-06 01:45 39.07144 64.11951 35952 ft 434 kts 249°
2026-05-06 01:46 39.04956 64.04763 35945 ft 433 kts 252°
2026-05-06 01:46 39.02828 63.97520 35919 ft 433 kts 252°
2026-05-06 01:47 39.00702 63.90308 35912 ft 433 kts 252°
2026-05-06 01:47 38.98567 63.83091 35911 ft 432 kts 252°
2026-05-06 01:48 38.96431 63.75887 35914 ft 433 kts 252°
2026-05-06 01:48 38.94258 63.68733 35915 ft 434 kts 249°
2026-05-06 01:49 38.91582 63.61797 35915 ft 436 kts 243°
2026-05-06 01:49 38.88314 63.55244 35909 ft 438 kts 237°
2026-05-06 01:50 38.84487 63.49167 35914 ft 440 kts 231°
2026-05-06 01:50 38.80396 63.43346 35922 ft 439 kts 232°
2026-05-06 01:51 38.76525 63.37843 35917 ft 440 kts 232°
2026-05-06 01:51 38.72425 63.32027 35926 ft 440 kts 231°
2026-05-06 01:52 38.68343 63.26247 35924 ft 439 kts 231°
2026-05-06 01:52 38.64234 63.20438 35923 ft 439 kts 231°
2026-05-06 01:53 38.60155 63.14682 35922 ft 439 kts 231°
2026-05-06 01:53 38.56056 63.08912 35918 ft 438 kts 231°
2026-05-06 01:54 38.51961 63.03155 35917 ft 439 kts 231°
2026-05-06 01:54 38.47864 62.97407 35913 ft 438 kts 231°